KF6RAL-6 Weather Reports


Display with metric or nautical units.
time (UTC)temp
F
wind
direction
speed
MPH
gust
MPH
rain 1hr
in
rain 24hr
in
rain mn
in
humidity
%
barometer
mb
20260509064512 66 108 2.0 10.0 0.00 0.00 0.00 37 1013.6
20260509063811 66 90 6.0 10.0 0.00 0.00 0.00 39 1013.4
20260509062409 66 94 2.0 6.0 0.00 0.00 0.00 42 1013.3
20260509061711 66 123 3.0 5.0 0.00 0.00 0.00 37 1013.3
20260509061007 67 125 2.0 6.0 0.00 0.00 0.00 36 1013.2
20260509060306 68 129 4.0 6.0 0.00 0.00 0.00 35 1012.6
20260509055605 68 124 2.0 5.0 0.00 0.00 0.00 36 1012.6
20260509054905 69 158 1.0 6.0 0.00 0.00 0.00 34 1012.6
20260509054203 69 163 1.0 7.0 0.00 0.00 0.00 35 1013.0
20260509053502 69 165 2.0 6.0 0.00 0.00 0.00 37 1013.0
20260509052801 69 113 1.0 6.0 0.00 0.00 0.00 39 1013.0
20260509052100 69 168 1.0 11.0 0.00 0.00 0.00 40 1013.0
20260509050658 68 213 4.0 9.0 0.00 0.00 0.00 50 1013.1
20260509045957 68 241 3.0 11.0 0.00 0.00 0.00 48 1013.1
20260509045256 68 296 6.0 11.0 0.00 0.00 0.00 53 1013.0
20260509044555 69 204 4.0 9.0 0.00 0.00 0.00 30 1012.8
20260509043854 67 231 3.0 8.0 0.00 0.00 0.00 35 1012.0
20260509043153 67 207 6.0 11.0 0.00 0.00 0.00 37 1011.9
20260509042452 66 207 6.0 11.0 0.00 0.00 0.00 39 1012.6
20260509041751 68 211 6.0 10.0 0.00 0.00 0.00 38 1012.3
20260509041050 68 0 0.0 2.0 0.00 0.00 0.00 33 1012.3
20260509040349 69 59 1.0 3.0 0.00 0.00 0.00 34 1012.3
20260509035648 69 0 0.0 2.0 0.00 0.00 0.00 32 1012.2
20260509034947 69 0 0.0 4.0 0.00 0.00 0.00 33 1012.1
20260509034245 70 78 2.0 4.0 0.00 0.00 0.00 32 1012.1
20260509033545 70 86 2.0 6.0 0.00 0.00 0.00 29 1011.9
20260509032843 71 110 2.0 6.0 0.00 0.00 0.00 29 1011.5
20260509032142 70 119 2.0 5.0 0.00 0.00 0.00 29 1011.6
20260509031441 70 90 2.0 5.0 0.00 0.00 0.00 32 1011.7
20260509030740 71 106 2.0 5.0 0.00 0.00 0.00 31 1011.4
20260509030040 71 102 2.0 5.0 0.00 0.00 0.00 31 1011.4
20260509025338 71 87 2.0 5.0 0.00 0.00 0.00 35 1011.2
20260509024637 71 87 4.0 6.0 0.00 0.00 0.00 35 1011.2
20260509023235 72 88 3.0 5.0 0.00 0.00 0.00 35 1011.2
20260509022534 72 79 3.0 5.0 0.00 0.00 0.00 36 1011.2
20260509021833 73 84 2.0 4.0 0.00 0.00 0.00 32 1010.8
20260509021132 73 80 2.0 5.0 0.00 0.00 0.00 29 1010.9
20260509020431 73 64 3.0 5.0 0.00 0.00 0.00 36 1011.5
20260509015730 73 22 3.0 5.0 0.00 0.00 0.00 36 1011.5
20260509015029 73 51 3.0 5.0 0.00 0.00 0.00 34 1011.9
20260509014328 74 40 4.0 6.0 0.00 0.00 0.00 37 1011.4
20260509013627 74 26 4.0 6.0 0.00 0.00 0.00 36 1011.5
20260509012926 75 17 4.0 6.0 0.00 0.00 0.00 33 1011.6
20260509012225 75 24 4.0 9.0 0.00 0.00 0.00 30 1011.7
20260509011524 76 18 7.0 9.0 0.00 0.00 0.00 35 1011.3
20260509010823 77 7 3.0 7.0 0.00 0.00 0.00 29 1011.6
20260509010122 77 360 3.0 5.0 0.00 0.00 0.00 28 1011.6
20260509005421 77 344 2.0 5.0 0.00 0.00 0.00 30 1011.8
20260509004720 77 311 2.0 6.0 0.00 0.00 0.00 25 1011.7
20260509004020 77 330 2.0 6.0 0.00 0.00 0.00 25 1011.7
20260509003319 77 343 2.0 6.0 0.00 0.00 0.00 26 1011.7
20260509002617 77 348 4.0 6.0 0.00 0.00 0.00 26 1011.8
20260509001916 77 343 3.0 5.0 0.00 0.00 0.00 25 1011.8
20260509001215 77 13 3.0 5.0 0.00 0.00 0.00 27 1011.8
20260509000514 77 311 1.0 5.0 0.00 0.00 0.00 26 1012.0
20260508235813 77 335 3.0 6.0 0.00 0.00 0.00 25 1012.0
20260508234411 76 359 4.0 6.0 0.00 0.00 0.00 25 1012.5
20260508233710 76 332 2.0 5.0 0.00 0.00 0.00 26 1012.5
20260508233009 76 325 2.0 6.0 0.00 0.00 0.00 27 1012.5
20260508232308 76 349 3.0 5.0 0.00 0.00 0.00 25 1012.6
20260508231607 76 11 3.0 5.0 0.00 0.00 0.00 26 1012.7
20260508230906 75 351 3.0 6.0 0.00 0.00 0.00 27 1012.8
20260508230205 74 309 2.0 5.0 0.00 0.00 0.00 35 1012.9
20260508225507 74 273 3.0 5.0 0.00 0.00 0.00 33 1012.3
20260508224803 74 283 3.0 5.0 0.00 0.00 0.00 31 1013.2
20260508224102 74 352 3.0 5.0 0.00 0.00 0.00 26 1012.8
20260508223401 74 302 1.0 5.0 0.00 0.00 0.00 30 1012.9
20260508222700 74 278 2.0 6.0 0.00 0.00 0.00 27 1013.1
20260508222000 74 302 1.0 6.0 0.00 0.00 0.00 30 1013.1
20260508221258 74 333 3.0 7.0 0.00 0.00 0.00 30 1013.3
20260508220559 74 358 4.0 7.0 0.00 0.00 0.00 29 1013.4
20260508215155 74 345 2.0 6.0 0.00 0.00 0.00 27 1013.5
20260508214455 73 360 2.0 5.0 0.00 0.00 0.00 26 1013.4
20260508213753 73 325 3.0 6.0 0.00 0.00 0.00 28 1013.6
20260508213052 72 307 3.0 6.0 0.00 0.00 0.00 29 1013.6
20260508212353 72 298 3.0 6.0 0.00 0.00 0.00 26 1013.9
20260508211650 72 297 3.0 5.0 0.00 0.00 0.00 27 1013.9
20260508210949 72 282 2.0 5.0 0.00 0.00 0.00 28 1013.9
20260508210248 72 280 2.0 5.0 0.00 0.00 0.00 25 1014.1
20260508204145 71 315 2.0 5.0 0.00 0.00 0.00 27 1014.9
20260508203444 71 301 3.0 5.0 0.00 0.00 0.00 30 1014.9
20260508202743 70 301 3.0 6.0 0.00 0.00 0.00 31 1014.9
20260508202042 70 300 3.0 6.0 0.00 0.00 0.00 31 1014.9
20260508201341 70 302 2.0 5.0 0.00 0.00 0.00 34 1015.0
20260508200640 70 290 3.0 4.0 0.00 0.00 0.00 30 1015.0
20260508195939 70 281 3.0 6.0 0.00 0.00 0.00 30 1015.1
20260508195238 70 316 2.0 7.0 0.00 0.00 0.00 31 1015.1
20260508194537 70 6 4.0 7.0 0.00 0.00 0.00 33 1014.8
20260508193836 70 347 3.0 7.0 0.00 0.00 0.00 37 1014.8
20260508193135 69 303 3.0 5.0 0.00 0.00 0.00 33 1015.2
20260508192434 68 303 3.0 5.0 0.00 0.00 0.00 32 1015.2
20260508191032 68 304 3.0 6.0 0.00 0.00 0.00 35 1015.4
20260508190331 68 308 3.0 5.0 0.00 0.00 0.00 38 1015.4
20260508185630 68 299 2.0 7.0 0.00 0.00 0.00 35 1015.5
20260508184931 68 347 4.0 7.0 0.00 0.00 0.00 40 1015.5
20260508184228 67 301 4.0 6.0 0.00 0.00 0.00 44 1015.2
20260508183527 67 311 4.0 7.0 0.00 0.00 0.00 39 1015.3
20260508182826 67 319 3.0 7.0 0.00 0.00 0.00 43 1015.4
20260508182125 66 299 4.0 7.0 0.00 0.00 0.00 42 1015.7
20260508181424 66 296 4.0 7.0 0.00 0.00 0.00 41 1015.7
20260508180723 66 298 4.0 8.0 0.00 0.00 0.00 48 1015.6
20260508180022 65 300 5.0 9.0 0.00 0.00 0.00 44 1015.9
20260508175321 65 303 5.0 9.0 0.00 0.00 0.00 48 1015.7
20260508174620 65 308 4.0 9.0 0.00 0.00 0.00 52 1015.6
20260508173918 64 308 4.0 7.0 0.00 0.00 0.00 54 1015.9
20260508173218 64 306 4.0 7.0 0.00 0.00 0.00 55 1015.8
20260508172516 64 315 3.0 9.0 0.00 0.00 0.00 58 1015.7
20260508171817 64 306 4.0 7.0 0.00 0.00 0.00 56 1015.7
20260508171115 64 304 3.0 6.0 0.00 0.00 0.00 57 1015.7
20260508170413 64 303 4.0 6.0 0.00 0.00 0.00 56 1015.7
20260508165712 65 303 3.0 7.0 0.00 0.00 0.00 54 1015.5
20260508165011 64 348 4.0 7.0 0.00 0.00 0.00 57 1015.6
20260508164310 64 305 4.0 8.0 0.00 0.00 0.00 54 1015.6
20260508162207 63 291 7.0 11.0 0.00 0.00 0.00 54 1015.5
20260508161506 63 302 5.0 10.0 0.00 0.00 0.00 53 1015.3
20260508160805 63 309 4.0 10.0 0.00 0.00 0.00 51 1015.3
20260508160104 63 296 6.0 10.0 0.00 0.00 0.00 53 1015.3
20260508154702 63 271 5.0 10.0 0.00 0.00 0.00 51 1015.5
20260508154116 63 267 6.0 10.0 0.00 0.00 0.00 51 1015.5
20260508154001 63 267 6.0 10.0 0.00 0.00 0.00 51 1015.5
20260508153300 63 258 5.0 9.0 0.00 0.00 0.00 50 1015.5
20260508152559 63 259 4.0 7.0 0.00 0.00 0.00 51 1015.5
20260508151858 62 249 3.0 5.0 0.00 0.00 0.00 52 1015.0
20260508151157 62 207 2.0 4.0 0.00 0.00 0.00 51 1015.1
20260508150456 61 0 0.0 5.0 0.00 0.00 0.00 52 1015.0
20260508145755 62 13 3.0 7.0 0.00 0.00 0.00 53 1014.7
20260508145054 63 68 3.0 5.0 0.00 0.00 0.00 54 1015.2
20260508144354 63 78 3.0 5.0 0.00 0.00 0.00 56 1014.9
20260508143653 62 96 2.0 5.0 0.00 0.00 0.00 56 1015.1
20260508142951 60 64 3.0 5.0 0.00 0.00 0.00 59 1014.5
20260508142250 59 54 1.0 3.0 0.00 0.00 0.00 59 1014.4
20260508141549 58 0 0.0 2.0 0.00 0.00 0.00 60 1014.7
20260508140848 58 0 0.0 2.0 0.00 0.00 0.00 61 1014.6
20260508135446 57 0 0.0 1.0 0.00 0.00 0.00 61 1014.6
20260508134745 56 0 0.0 2.0 0.00 0.00 0.00 62 1014.0
20260508134044 55 0 0.0 3.0 0.00 0.00 0.00 62 1014.3
20260508133344 55 220 1.0 4.0 0.00 0.00 0.00 63 1014.2
20260508132642 56 230 2.0 4.0 0.00 0.00 0.00 59 1014.6
20260508131941 58 0 0.0 2.0 0.00 0.00 0.00 59 1014.3
20260508131242 58 0 0.0 2.0 0.00 0.00 0.00 58 1014.3
20260508130539 58 0 0.0 3.0 0.00 0.00 0.00 57 1014.2
20260508125838 58 206 2.0 3.0 0.00 0.00 0.00 56 1014.1
20260508125138 57 128 1.0 3.0 0.00 0.00 0.00 52 1013.4
20260508124437 57 0 0.0 3.0 0.00 0.00 0.00 53 1013.3
20260508123735 56 0 0.0 3.0 0.00 0.00 0.00 56 1013.3
20260508123034 56 116 1.0 3.0 0.00 0.00 0.00 63 1013.2
20260508122333 57 89 1.0 5.0 0.00 0.00 0.00 60 1013.1
20260508121632 57 64 2.0 5.0 0.00 0.00 0.00 59 1013.0
20260508120931 58 0 0.0 4.0 0.00 0.00 0.00 53 1013.5
20260508120230 58 0 0.0 1.0 0.00 0.00 0.00 55 1013.6
20260508115529 57 0 0.0 0.0 0.00 0.00 0.00 57 1012.9
20260508114828 57 0 0.0 0.0 0.00 0.00 0.00 58 1012.9
20260508114127 57 0 0.0 0.0 0.00 0.00 0.00 59 1012.7
20260508113426 56 0 0.0 0.0 0.00 0.00 0.00 63 1013.1
20260508112725 55 0 0.0 3.0 0.00 0.00 0.00 66 1013.0
20260508112024 55 0 0.0 4.0 0.00 0.00 0.00 67 1013.0
20260508111323 56 88 1.0 4.0 0.00 0.00 0.00 68 1013.0
20260508110622 56 84 1.0 4.0 0.00 0.00 0.00 69 1012.9
20260508105921 55 87 2.0 5.0 0.00 0.00 0.00 70 1013.0
20260508105220 55 0 0.0 4.0 0.00 0.00 0.00 70 1012.9
20260508104519 55 0 0.0 7.0 0.00 0.00 0.00 68 1013.2
20260508103818 56 80 3.0 5.0 0.00 0.00 0.00 66 1012.9
20260508103118 56 63 2.0 3.0 0.00 0.00 0.00 62 1012.9
20260508102416 56 0 0.0 1.0 0.00 0.00 0.00 61 1012.8
20260508101715 56 0 0.0 3.0 0.00 0.00 0.00 58 1012.7
20260508101014 57 211 2.0 4.0 0.00 0.00 0.00 60 1012.7
20260508100313 59 195 1.0 5.0 0.00 0.00 0.00 53 1013.3
20260508095613 58 203 4.0 5.0 0.00 0.00 0.00 53 1013.2
20260508094911 58 248 2.0 4.0 0.00 0.00 0.00 59 1013.3
20260508094211 59 227 1.0 4.0 0.00 0.00 0.00 55 1012.5
20260508093509 59 249 2.0 4.0 0.00 0.00 0.00 58 1013.2
20260508092808 59 259 1.0 4.0 0.00 0.00 0.00 63 1013.1
20260508091406 57 0 0.0 4.0 0.00 0.00 0.00 64 1012.5
20260508090705 57 110 2.0 4.0 0.00 0.00 0.00 66 1012.4
20260508090004 57 81 3.0 4.0 0.00 0.00 0.00 65 1012.5
20260508085306 57 91 2.0 4.0 0.00 0.00 0.00 66 1012.5
20260508084602 56 67 3.0 5.0 0.00 0.00 0.00 68 1012.5
20260508083901 56 92 4.0 5.0 0.00 0.00 0.00 66 1012.5
20260508083200 56 92 3.0 5.0 0.00 0.00 0.00 65 1012.5
20260508082459 57 78 4.0 5.0 0.00 0.00 0.00 63 1012.6
20260508081758 57 56 1.0 5.0 0.00 0.00 0.00 59 1012.7
20260508081057 57 37 1.0 4.0 0.00 0.00 0.00 58 1012.4
20260508080356 58 134 2.0 6.0 0.00 0.00 0.00 53 1012.4
20260508075655 58 225 2.0 8.0 0.00 0.00 0.00 57 1012.4
20260508074954 58 176 1.0 7.0 0.00 0.00 0.00 56 1012.4
20260508074253 58 209 5.0 8.0 0.00 0.00 0.00 57 1012.7
20260508073552 59 209 4.0 9.0 0.00 0.00 0.00 56 1012.4
20260508072851 59 211 5.0 9.0 0.00 0.00 0.00 55 1012.4
20260508072150 60 225 5.0 10.0 0.00 0.00 0.00 55 1012.2
20260508071449 61 240 4.0 8.0 0.00 0.00 0.00 56 1012.6
20260508070748 62 220 1.0 5.0 0.00 0.00 0.00 63 1012.4
20260508070047 62 270 2.0 6.0 0.00 0.00 0.00 63 1012.3
20260508065346 61 0 0.0 3.0 0.00 0.00 0.00 49 1012.6